Погода в Порт-Саиде

Египет     31°14′19″N   32°17′59″E
темп.,
°C
ветер,
м/с
пор.,
м/с
влажн.,
%
обл.,
%
осадки,
мм/ч
давл.,
гПа
погр.,
м
20 июня, вс
вс2023:00+24ссз34630 0.0 1012524
02:00+24ссв11620 0.0 1011405
05:00+24в22630 0.0 1011461
08:00+24юв11620 0.0 1011411
11:00+25с33610 0.0 1012436
14:00+25с55610 0.0 1011406
17:00+25ссв55610 0.0 1011418
20:00+25св44610 0.0 1011441
21 июня, пн
пн2123:00+25ссв22600 0.0 1012307
02:00+25с22600 0.0 1011335
05:00+24св21590 0.0 1011366
08:00+25св11570 0.0 1012295
11:00+25ссв22560 0.0 1012276
14:00+26ссв44610 0.0 1011337
17:00+26с67680 0.0 1011533
20:00+25с45680 0.0 1012467
22 июня, вт
вт2223:00+25с33690 0.0 1012454
02:00+25сз34710 0.0 1011433
05:00+25сз12700 0.0 1012463
08:00+25зсз33700 0.0 1012417
11:00+25ссз44680 0.0 1012361
14:00+26с77690 0.0 1012458
17:00+26с77700 0.0 1012544
20:00+25с56750 0.0 1012476
23 июня, ср
ср2323:00+25ссз44740 0.0 1012437
02:00+25ссз33730 0.0 1012401
05:00+25ссз23710 0.0 1012403
08:00+25сз22690 0.0 1012388
11:00+25с22670 0.0 1013292
14:00+26с55670 0.0 1012347
17:00+26с66720 0.0 1012387
20:00+26с55740 0.0 1012358
24 июня, чт
чт2423:00+25с33730 0.0 1012307
02:00+25ссз22730 0.0 1011297
05:00+25с22740 0.0 1011309
08:00+25с11730 0.0 1012253
11:00+25с22720 0.0 1011241
14:00+26с55700 0.0 1010266
17:00+26с56740 0.0 1009326
20:00+26ссв45770 0.0 1010315